カタログに戻る

STARLINK-31732

運用中通信VLEO
NORAD 60099·PAYLOAD·🇺🇸 United States

打ち上げ Jun 23, 2024 から Cape Canaveral Space Force Station

Loading…

次のパス (今後24時間)

TLE

最新Source: CelesTrak SupGP

元期: Sep 14, 2026, 14:20 UTC

1 60099C 24117J   26257.59770833 -.00030674  00000+0 -90656-3 0  2570
2 60099  53.1573 237.2450 0001375  85.0682 261.0409 15.34395748    10

AllMySatでSTARLINK-31732をリアルタイム追跡

Download on the App Store